[[{"header":{"parameterUnit":"m.s-1","parameterCategory":1,"la1":30.2991,"la2":30.254,"lo1":-89.0895,"lo2":-89.0444,"dy":0.0017,"dx":0.0017,"nx":28,"ny":28,"refTime":"2024-07-28T21:00:00:Z","depth":0,"parameterNumber":2,"parameterNumberName":"U-component_of_WINDS"},"data":[0,0,0,0,0,0,0,0,0,0,0,0,0,0,0,0,0,0,0,0,0,0,0,0,0,0,0,0,0,0,0,0,0,0,0,0,0,0,0,0,0,0,0,0,0,0,0,0,0,0,0,0,0,0,0,0,0,0,0.7716,0.7719,0,0.7926,0.7928,0.7931,0.8022,0.8022,0.8022,0.8022,0.8236,0.8242,0.8248,0,0,0,0,0,0,0,0,0,0,0,0,0,0.7395,0.74,0.7716,0.7719,0.7722,0.7925,0.7928,0.7931,0.8022,0.8022,0.8022,0.8021,0.8234,0.8241,0.8249,0,0,0,0,0,0,0,0,0,0,0,0,0,0.7562,0.7402,0.7716,0.7792,0.7801,0.7925,0.7928,0.7932,0.8023,0.8022,0.8022,0.8021,0.8232,0.8241,0.825,0.8314,0,0,0.8277,0.8281,0,0,0,0,0,0,0,0,0.7553,0.7574,0.7778,0.7787,0.7797,0.7948,0.7894,0.806,0.8023,0.7938,0.8022,0.8021,0.8141,0.8157,0.8197,0.8324,0.8334,0.8278,0.8283,0.8287,0.829,0,0,0,0,0,0,0,0.7541,0.7565,0.7799,0.7781,0.7792,0.7815,0.7838,0.7926,0.8039,0.7946,0.7953,0.7976,0.8146,0.8189,0.8203,0.8337,0.8278,0.8286,0.8291,0.8295,0.8527,0.8528,0,0,0,0,0,0,0.7517,0.7555,0.7793,0.7806,0.7671,0.7821,0.7847,0.79,0.8039,0.806,0.7976,0.798,0.8173,0.8193,0.8211,0.8296,0.8287,0.8296,0.8301,0.8526,0.8527,0.8528,0,0,0,0,0,0,0.751,0.7537,0.7784,0.7682,0.7716,0.7827,0.7885,0.7904,0.7947,0.8062,0.8083,0.7999,0.8174,0.8198,0.8288,0.8305,0.83,0.8308,0.8525,0.8526,0.8528,0.8466,0,0,0,0,0,0,0.75,0.7534,0.756,0.7682,0.7721,0.7857,0.7886,0.7908,0.7962,0.7969,0.8089,0.8109,0.8175,0.8274,0.8297,0.8317,0.8315,0.8524,0.8526,0.8527,0.8467,0.8465,0.8463,0,0,0,0,0,0.7488,0.7534,0.7561,0.7589,0.7755,0.7858,0.788,0.7956,0.7963,0.799,0.8064,0.8105,0.8299,0.8282,0.8309,0.8332,0.8524,0.8525,0.8527,0.8468,0.8465,0.8463,0,0,0,0,0,0,0.7412,0.7552,0.7583,0.767,0.7751,0.7873,0.791,0.7951,0.8032,0.8034,0.8125,0.8151,0.8233,0.8292,0.8271,0.8402,0.8415,0.8422,0.8361,0.8359,0.8357,0.8342,0.8322,0,0,0,0,0,0.7405,0.7476,0.7595,0.7661,0.77,0.7797,0.7845,0.7896,0.7984,0.8019,0.81,0.8184,0.8264,0.8315,0.8395,0.8475,0.8503,0.8504,0.8502,0.85,0.8505,0.8552,0.8554,0.8534,0.8534,0.8534,0,0,0.7391,0.7477,0.7517,0.7647,0.7717,0.7789,0.7826,0.7901,0.7955,0.8031,0.812,0.8182,0.8282,0.8367,0.8408,0.8418,0.8517,0.8502,0.85,0.8507,0.8554,0.8556,0.8558,0.8535,0.8535,0.8534,0,0,0.7404,0.7476,0.7539,0.7607,0.7711,0.7775,0.779,0.7906,0.795,0.8041,0.8099,0.8165,0.83,0.8369,0.8422,0.8459,0.8499,0.8482,0.8472,0.8517,0.8518,0.852,0.8534,0.8537,0.8487,0.8487,0.8487,0,0.7375,0.7486,0.7565,0.7637,0.7693,0.7764,0.7827,0.789,0.8014,0.8051,0.806,0.8231,0.8304,0.8406,0.8414,0.8455,0.8474,0.8469,0.8512,0.8514,0.8517,0.8531,0.8536,0.8484,0.8484,0.8485,0.8485,0,0.7445,0.7521,0.7559,0.7677,0.7737,0.7804,0.7893,0.7944,0.7989,0.8052,0.8144,0.8232,0.8331,0.8359,0.8405,0.8468,0.8471,0.8494,0.8509,0.8515,0.853,0.8536,0.848,0.8481,0.8482,0.8483,0,0,0.7417,0.7577,0.759,0.7644,0.7763,0.7824,0.7894,0.799,0.8032,0.8115,0.8176,0.8289,0.8311,0.8371,0.8424,0.8463,0.8487,0.8482,0.8486,0.848,0.8562,0.8543,0.8548,0.8514,0.8515,0.8516,0.8553,0,0.7446,0.7575,0.7648,0.7746,0.7818,0.7885,0.7946,0.8026,0.8086,0.8155,0.8222,0.8301,0.8324,0.8361,0.8402,0.8475,0.8504,0.8473,0.8572,0.8574,0.8545,0.8556,0.8537,0.8568,0.856,0.8561,0.8561,0,0.7498,0.758,0.7685,0.7796,0.7829,0.7882,0.7976,0.8041,0.8132,0.8174,0.8239,0.8292,0.8368,0.8376,0.8483,0.846,0.8504,0.8546,0.8549,0.8562,0.8569,0.8569,0.858,0.8584,0.8571,0.857,0.857,0,0.7467,0.7603,0.7684,0.7728,0.786,0.7895,0.7952,0.8043,0.8096,0.8178,0.8213,0.8302,0.8351,0.8419,0.8495,0.8494,0.8594,0.8608,0.863,0.8628,0.8649,0.8647,0.8667,0.8676,0.8676,0.8676,0.8676,0,0.7493,0.7555,0.7672,0.7721,0.7793,0.7875,0.7943,0.8005,0.8085,0.8148,0.8211,0.8269,0.8365,0.8434,0.8494,0.8572,0.8594,0.8629,0.8645,0.8624,0.862,0.8655,0.8655,0.8677,0.8677,0.8677,0.8676,0,0.747,0.7551,0.7644,0.776,0.7791,0.7838,0.7938,0.7988,0.8051,0.813,0.8153,0.8252,0.8337,0.8419,0.8532,0.8572,0.8651,0.8671,0.862,0.8629,0.8646,0.8643,0.8691,0.8701,0.8702,0.8701,0.8701,0,0.7482,0.7531,0.7652,0.7699,0.7754,0.7828,0.7882,0.7965,0.8019,0.8126,0.8163,0.8253,0.8329,0.846,0.8543,0.863,0.8653,0.8663,0.8666,0.8644,0.8653,0.865,0.8655,0.8661,0.8661,0.866,0.866,0,0.7494,0.7531,0.7607,0.7697,0.776,0.7834,0.7911,0.7945,0.8043,0.81,0.8187,0.8246,0.8361,0.8449,0.8546,0.8604,0.8648,0.8658,0.8668,0.8648,0.8617,0.8634,0.8615,0.8657,0.8657,0.8658,0.8658,0.8658,0.7489,0.7536,0.7628,0.7711,0.7777,0.7847,0.79,0.797,0.8044,0.8145,0.8189,0.8276,0.8366,0.85,0.8557,0.8627,0.8638,0.8652,0.8655,0.8658,0.8653,0.8604,0.8644,0.8645,0.8645,0.8645,0.8645,0,0.7505,0.7567,0.7642,0.7747,0.7812,0.7847,0.7934,0.7986,0.8062,0.8142,0.8215,0.8314,0.84,0.8488,0.8578,0.8617,0.864,0.8638,0.8636,0.8649,0.8638,0.8621,0.8618,0.8618,0.8618,0.8618,0.8618,0.8618,0.752,0.7601,0.7649,0.7763,0.7826,0.7912,0.7959,0.8023,0.8087,0.8196,0.8267,0.8324,0.8407,0.8503,0.8583,0.8607,0.8637,0.863,0.8659,0.8648,0.865,0.8651,0.8635,0.8635,0.8635,0.8664,0.8664,0.8664]},{"header":{"parameterUnit":"m.s-1","parameterCategory":1,"la1":30.2991,"la2":30.254,"lo1":-89.0895,"lo2":-89.0444,"dy":0.0017,"dx":0.0017,"nx":28,"ny":28,"refTime":"2024-07-28T21:00:00:Z","depth":0,"parameterNumber":3,"parameterNumberName":"V-component_of_WINDS"},"data":[0,0,0,0,0,0,0,0,0,0,0,0,0,0,0,0,0,0,0,0,0,0,0,0,0,0,0,0,0,0,0,0,0,0,0,0,0,0,0,0,0,0,0,0,0,0,0,0,0,0,0,0,0,0,0,0,0,0,3.7553,3.7553,0,3.7508,3.7507,3.7507,3.7447,3.7446,3.7446,3.7445,3.7396,3.7396,3.7395,0,0,0,0,0,0,0,0,0,0,0,0,0,3.7588,3.7588,3.7553,3.7553,3.7552,3.7508,3.7507,3.7506,3.7448,3.7446,3.7445,3.7444,3.7396,3.7396,3.7395,0,0,0,0,0,0,0,0,0,0,0,0,0,3.7561,3.7588,3.7553,3.7518,3.7514,3.7508,3.7507,3.7506,3.7448,3.7446,3.7445,3.7444,3.7396,3.7396,3.7395,3.742,0,0,3.7393,3.7393,0,0,0,0,0,0,0,0,3.7563,3.756,3.7523,3.752,3.7516,3.7482,3.7501,3.7477,3.7448,3.7473,3.7445,3.7443,3.7426,3.7422,3.7417,3.7418,3.7416,3.7393,3.7393,3.7393,3.7392,0,0,0,0,0,0,0,3.7565,3.7561,3.7535,3.7523,3.7518,3.7503,3.7498,3.7497,3.7458,3.7471,3.7466,3.7462,3.7423,3.7418,3.7415,3.7415,3.7393,3.7393,3.7392,3.7392,3.7433,3.7435,0,0,0,0,0,0,3.7572,3.7563,3.7537,3.7534,3.7536,3.7504,3.7498,3.7494,3.7458,3.7451,3.7463,3.7459,3.7419,3.7416,3.7413,3.744,3.7393,3.7392,3.7392,3.7432,3.7434,3.7435,0,0,0,0,0,0,3.7573,3.757,3.7538,3.7547,3.7542,3.7505,3.7501,3.7494,3.7488,3.7452,3.7444,3.7465,3.7418,3.7414,3.7419,3.7437,3.7392,3.7391,3.743,3.7432,3.7434,3.7493,0,0,0,0,0,0,3.7574,3.7571,3.758,3.7548,3.7542,3.7545,3.7502,3.7494,3.7488,3.7482,3.7451,3.7445,3.7417,3.742,3.7418,3.7436,3.7391,3.7428,3.7431,3.7434,3.749,3.7497,3.7504,0,0,0,0,0,3.7576,3.7598,3.7581,3.7578,3.7553,3.7547,3.7543,3.7511,3.749,3.7498,3.7475,3.7446,3.7436,3.7421,3.7418,3.7436,3.7427,3.743,3.7434,3.7486,3.7496,3.7504,0,0,0,0,0,0,3.7633,3.7594,3.7574,3.7587,3.7571,3.7537,3.7547,3.7522,3.7511,3.7506,3.7466,3.7459,3.7469,3.7453,3.7437,3.7458,3.7427,3.743,3.7468,3.7477,3.7484,3.7487,3.739,0,0,0,0,0,3.7648,3.7646,3.7611,3.7626,3.7619,3.7585,3.758,3.7557,3.7538,3.7531,3.7508,3.749,3.7483,3.7479,3.747,3.7487,3.7479,3.7498,3.7505,3.7511,3.7514,3.7521,3.7529,3.7446,3.7446,3.7446,0,0,3.7677,3.7655,3.7656,3.7637,3.7622,3.7621,3.7579,3.758,3.7578,3.7531,3.7534,3.7516,3.7494,3.7505,3.7508,3.7492,3.7535,3.7515,3.752,3.752,3.7525,3.7533,3.754,3.7448,3.7448,3.7447,0,0,3.773,3.7713,3.7724,3.7709,3.7687,3.7664,3.7666,3.7636,3.7623,3.7625,3.759,3.7587,3.7576,3.7561,3.7552,3.76,3.7573,3.7599,3.7636,3.7643,3.765,3.7656,3.7672,3.7679,3.7602,3.7602,3.7602,0,3.7769,3.7766,3.7732,3.7735,3.7727,3.7685,3.7695,3.7683,3.7658,3.7654,3.7636,3.7621,3.7603,3.7609,3.7621,3.7616,3.7617,3.7602,3.7652,3.7657,3.7662,3.7677,3.7684,3.7605,3.7605,3.7604,3.7604,0,3.7815,3.7814,3.7825,3.7803,3.7797,3.7803,3.777,3.7767,3.7745,3.7724,3.7727,3.7704,3.769,3.7689,3.7667,3.7693,3.7683,3.7659,3.7627,3.7674,3.7687,3.7693,3.761,3.7609,3.7608,3.7607,0,0,3.7902,3.7862,3.7866,3.7856,3.7828,3.7826,3.7831,3.7818,3.7816,3.7801,3.7804,3.7795,3.7773,3.7763,3.7738,3.7745,3.7784,3.772,3.7719,3.7732,3.7811,3.7829,3.7836,3.7766,3.7767,3.7768,3.7813,0,3.7949,3.7955,3.7925,3.7938,3.7937,3.7897,3.7901,3.7884,3.7864,3.7859,3.7837,3.7832,3.7803,3.7797,3.7802,3.7779,3.7799,3.7775,3.7767,3.7767,3.7774,3.7844,3.7863,3.7906,3.7818,3.7819,3.7819,0,3.8005,3.7993,3.8007,3.7979,3.7977,3.7981,3.7966,3.7963,3.7943,3.7928,3.7917,3.7889,3.7891,3.7861,3.7863,3.7847,3.7842,3.783,3.7831,3.7829,3.7796,3.7843,3.7919,3.7925,3.7828,3.7827,3.7826,0,3.8066,3.8054,3.8061,3.8053,3.8021,3.8024,3.8011,3.799,3.7984,3.7971,3.7967,3.7954,3.7947,3.7938,3.7907,3.7888,3.7912,3.788,3.7899,3.79,3.7906,3.7906,3.7982,3.7904,3.7904,3.7903,3.7903,0,3.8122,3.8132,3.8088,3.8092,3.8102,3.8067,3.8078,3.806,3.8042,3.8041,3.8006,3.8006,3.7966,3.7961,3.7937,3.7942,3.7939,3.7927,3.792,3.793,3.7931,3.7926,3.7922,3.7905,3.7905,3.7904,3.7904,0,3.8192,3.8164,3.8168,3.8137,3.813,3.8138,3.8111,3.8113,3.8092,3.8092,3.809,3.8056,3.8049,3.8017,3.8003,3.7986,3.7999,3.7986,3.8006,3.8002,3.8023,3.8022,3.8098,3.8106,3.8023,3.8024,3.8025,0,3.8229,3.8236,3.8206,3.8204,3.8192,3.8188,3.8182,3.8148,3.8143,3.8121,3.8126,3.8116,3.8107,3.8097,3.8071,3.8059,3.8046,3.8073,3.8043,3.8053,3.8046,3.8045,3.8046,3.8079,3.8081,3.8081,3.8082,0,3.8298,3.8284,3.8277,3.8265,3.8259,3.8248,3.8235,3.8235,3.8197,3.8193,3.8186,3.8179,3.8164,3.8154,3.8139,3.8124,3.8097,3.8092,3.8096,3.8105,3.8116,3.811,3.8023,3.809,3.8089,3.8089,3.8088,3.8088,3.8353,3.8357,3.8337,3.833,3.8317,3.8305,3.8306,3.8285,3.8278,3.8264,3.8244,3.824,3.8219,3.8195,3.8183,3.8178,3.8163,3.8169,3.817,3.8172,3.8177,3.8118,3.8175,3.8175,3.8175,3.8174,3.8174,0,3.8419,3.8405,3.8399,3.8382,3.8377,3.8353,3.8337,3.8334,3.8331,3.8314,3.8306,3.8297,3.8288,3.8261,3.8249,3.8251,3.8238,3.8249,3.8248,3.8245,3.8191,3.8189,3.8259,3.8259,3.8259,3.8259,3.8259,3.8259,3.8453,3.8459,3.8443,3.8441,3.8426,3.8422,3.8415,3.8404,3.8391,3.8384,3.8376,3.8359,3.8338,3.8324,3.8315,3.8307,3.8304,3.8319,3.8307,3.8257,3.8249,3.8241,3.8239,3.8319,3.8319,3.8361,3.8362,3.8362]}]]